DAL133 EHAM-KDTW

Flight info

Callsign DAL133
Flight time N/A
Altitude 36000
Route BERGI L602 NALAX L46 GETNO DCT REMSI DCT NIBOG DCT PIKIL/M085F370 NATA ALLRY/N0491F380 N484E ANATI DCT PESAC Q921 AGLUK Q941 TAKOL DCT YOW DCT TUKIR Q806 BOBTA TPGUN2
Aircraft A359/H-SDE2E3GHIJ3J4J5LM1ORWXY/LB1D1

Departure

Time 2026-05-08 07:53
Airport Amsterdam Airport Schiphol (EHAM)

Arrival

Time N/A
Airport Detroit Metropolitan Wayne County Airport (KDTW)
Time Latitude Longitude Altitude Speed Heading
2026-05-08 07:36 52.31287 4.75585 3 ft 0 kts 88°
2026-05-08 07:42 52.31286 4.75577 3 ft 1 kts 88°
2026-05-08 07:42 52.31286 4.75562 3 ft 1 kts 88°
2026-05-08 07:42 52.31286 4.75545 3 ft 3 kts 88°
2026-05-08 07:42 52.31285 4.75516 4 ft 3 kts 77°
2026-05-08 07:43 52.31278 4.75487 6 ft 3 kts 57°
2026-05-08 07:43 52.31267 4.75463 8 ft 3 kts 38°
2026-05-08 07:43 52.31251 4.75447 7 ft 3 kts 19°
2026-05-08 07:43 52.31238 4.75441 7 ft 0 kts
2026-05-08 07:47 52.31286 4.75444 5 ft 13 kts
2026-05-08 07:47 52.31380 4.75439 2 ft 15 kts 360°
2026-05-08 07:48 52.31484 4.75417 1 ft 15 kts 326°
2026-05-08 07:48 52.31507 4.75252 -1 ft 16 kts 272°
2026-05-08 07:48 52.31501 4.75078 1 ft 14 kts 266°
2026-05-08 07:48 52.31496 4.74927 3 ft 13 kts 266°
2026-05-08 07:49 52.31495 4.74777 3 ft 13 kts 275°
2026-05-08 07:49 52.31519 4.74680 5 ft 0 kts 328°
2026-05-08 07:50 52.31535 4.74670 5 ft 7 kts 341°
2026-05-08 07:51 52.31608 4.74660 6 ft 13 kts
2026-05-08 07:51 52.31668 4.74739 6 ft 11 kts 75°
2026-05-08 07:51 52.31671 4.74792 5 ft 0 kts 86°
2026-05-08 07:52 52.31675 4.74887 2 ft 36 kts 86°
2026-05-08 07:53 52.31706 4.75739 4 ft 112 kts 86°
2026-05-08 07:53 52.31762 4.77379 89 ft 170 kts 87°
2026-05-08 07:53 52.31828 4.79455 619 ft 192 kts 87°
2026-05-08 07:53 52.32147 4.81611 1476 ft 206 kts 59°
2026-05-08 07:54 52.33271 4.83135 1869 ft 221 kts 19°
2026-05-08 07:54 52.34780 4.83122 2418 ft 227 kts 340°
2026-05-08 07:54 52.36159 4.81889 3107 ft 226 kts 328°
2026-05-08 07:54 52.37484 4.80474 3689 ft 228 kts 328°
2026-05-08 07:55 52.38795 4.78982 4261 ft 232 kts 321°
2026-05-08 07:55 52.40002 4.77126 4625 ft 246 kts 315°
2026-05-08 07:55 52.41241 4.75051 4976 ft 261 kts 315°
2026-05-08 07:55 52.42527 4.72896 5500 ft 266 kts 315°
2026-05-08 07:56 52.43840 4.70717 6092 ft 270 kts 315°
2026-05-08 07:56 52.45166 4.68529 6698 ft 273 kts 315°
2026-05-08 07:56 52.46583 4.66442 7276 ft 276 kts 325°
2026-05-08 07:56 52.48264 4.64988 7863 ft 278 kts 336°
2026-05-08 07:57 52.50066 4.63793 8475 ft 280 kts 338°
2026-05-08 07:57 52.51902 4.62633 9060 ft 284 kts 338°
2026-05-08 07:57 52.53758 4.61463 9679 ft 287 kts 338°
2026-05-08 07:57 52.55629 4.60275 10242 ft 290 kts 338°
2026-05-08 07:58 52.57551 4.59036 10517 ft 304 kts 337°
2026-05-08 07:58 52.59569 4.57725 10738 ft 319 kts 337°
2026-05-08 07:58 52.61681 4.56349 10934 ft 334 kts 337°
2026-05-08 07:58 52.63885 4.54912 11163 ft 347 kts 337°
2026-05-08 07:59 52.66165 4.53400 11391 ft 359 kts 335°
2026-05-08 07:59 52.68284 4.51196 11757 ft 363 kts 315°
2026-05-08 07:59 52.69895 4.48003 12258 ft 364 kts 304°
2026-05-08 07:59 52.71340 4.44560 12755 ft 366 kts 303°
2026-05-08 08:00 52.72771 4.41069 13240 ft 369 kts 303°
2026-05-08 08:00 52.74219 4.37547 13722 ft 372 kts 302°
2026-05-08 08:00 52.75610 4.33924 14165 ft 374 kts 300°
2026-05-08 08:00 52.76908 4.30260 14610 ft 375 kts 298°
2026-05-08 08:01 52.78182 4.26495 15071 ft 377 kts 297°
2026-05-08 08:01 52.79444 4.22688 15504 ft 378 kts 297°
2026-05-08 08:01 52.80708 4.18868 15976 ft 380 kts 297°
2026-05-08 08:01 52.81984 4.15026 16442 ft 382 kts 297°
2026-05-08 08:02 52.83273 4.11170 16890 ft 384 kts 297°
2026-05-08 08:02 52.84570 4.07303 17334 ft 386 kts 297°
2026-05-08 08:02 52.85894 4.03364 17787 ft 388 kts 297°
2026-05-08 08:02 52.87209 3.99456 18236 ft 390 kts 297°
2026-05-08 08:03 52.88510 3.95581 18637 ft 392 kts 297°
2026-05-08 08:03 52.89841 3.91615 19005 ft 394 kts 297°
2026-05-08 08:03 52.91173 3.87634 19372 ft 396 kts 297°